Location: Casteau
(50.5142°N, 4.0161°E)
Time: 21:07:13
(UTC+00:00)

Tiros 1 - Pass Details

Date: 02 August 2021
Orbit: 630 x 663 km, 48.4° (Epoch: 28 September)

Event Time Altitude Azimuth Distance (km) Brightness Sun altitude
Rises 23:34:44 0° 278° (W) 2,961 10.7 -21.9°
Reaches altitude 10° 23:37:56 10° 256° (WSW) 2,039 9.6 -21.9°
Enters shadow 23:38:04 10° 255° (WSW) 2,009 9.5 -21.9°
Maximum altitude 23:40:37 15° 221° (SW) 1,706 - -22.0°
Drops below altitude 10° 23:43:18 10° 186° (S) 2,020 - -22.0°
Sets 23:46:27 0° 163° (SSE) 2,918 - -22.0°
